Weather History for LIQC - November, 2012

Change the Weather History Date:

Wednesday, November 21, 2012

  Actual Average Record
Temperature  
Mean Temperature 62 °F -  
Max Temperature 66 °F - - ()
Min Temperature 59 °F - - ()
Degree Days  
Heating Degree Days 2    
Growing Degree Days 12 (Base 50)    
Moisture  
Dew Point 58 °F    
Average Humidity 82    
Maximum Humidity 88    
Minimum Humidity 74    
Precipitation  
Precipitation 0.00 in - - ()
Sea Level Pressure  
Sea Level Pressure 29.94 in    
Wind  
Wind Speed 1 mph ()    
Max Wind Speed 5 mph    
Max Gust Speed -    
Visibility 8.6 miles    
Events      
T = Trace of Precipitation, MM = Missing Value Source: Averaged Metar Reports

Daily Weather History Graph

Daily Weather History Graph

Search for Another Location

Airport or City:

Trip Planner

Search our weather history database for the weather conditions in past years. The results will help you decide how hot, cold, wet, or windy it might be!

Date:

Astronomy

Nov. 21, 2012 Rise Set
Actual Time 6:56 AM CET 4:41 PM CET
Civil Twilight 6:27 AM CET 5:10 PM CET
Nautical Twilight 5:53 AM CET 5:44 PM CET
Astronomical Twilight 5:21 AM CET 6:16 PM CET
Moon 12:50 PM CET (11/21) No Moon Set
Length of Visible Light 10h 43m
Length of Day
9h 44m
First Quarter, 59% of the Moon is Illuminated
Nov 21
First Quarter
Nov 28
Full
Dec 6
Last Quarter
Dec 13
New
Dec 20
First Quarter

Hourly Weather History & Observations

Time (CET) Temp. Dew Point Humidity Pressure Visibility Wind Dir Wind Speed Gust Speed Precip Events Conditions
12:55 AM 60.8 °F 55.4 °F 82% 29.86 in 6.2 mi Variable 1.2 mph - N/A   Scattered Clouds
1:00 AM 61 °F 56 °F 78% 29.87 in 6 mi 1.2 mph - -   Partly Cloudy
1:55 AM 60.8 °F 55.4 °F 82% 29.86 in 6.2 mi Variable 1.2 mph - N/A   Scattered Clouds
4:00 AM 60 °F 56 °F 83% 29.87 in 12 mi 2.3 mph - -   Overcast
6:55 AM 60.8 °F 57.2 °F 88% 29.89 in 6.2 mi Variable 1.2 mph - N/A   Mostly Cloudy
7:00 AM 60 °F 57 °F 85% 29.90 in 12 mi 1.2 mph - -   Mostly Cloudy
7:55 AM 60.8 °F 57.2 °F 88% 29.92 in 6.2 mi Variable 1.2 mph - N/A   Mostly Cloudy
8:55 AM 60.8 °F 55.4 °F 82% 29.92 in 6.2 mi Variable 1.2 mph - N/A   Scattered Clouds
9:55 AM 62.6 °F 57.2 °F 82% 29.92 in - Calm Calm - N/A   Clear
10:00 AM 62 °F 57 °F 79% 29.92 in 12 mi Calm Calm - -   Partly Cloudy
10:55 AM 62.6 °F 57.2 °F 82% 29.92 in - Calm Calm - N/A   Clear
11:55 AM 64.4 °F 57.2 °F 77% 29.92 in - Calm Calm - N/A   Clear
12:55 PM 64.4 °F 57.2 °F 77% 29.95 in - Calm Calm - N/A   Clear
1:00 PM 64 °F 58 °F 74% 29.94 in 12 mi Calm Calm - -   Mostly Cloudy
1:55 PM 64.4 °F 59.0 °F 83% 29.95 in 6.2 mi Calm Calm - N/A   Scattered Clouds
2:55 PM 64.4 °F 59.0 °F 83% 29.95 in 6.2 mi ENE 3.5 mph - N/A   Scattered Clouds
3:55 PM 64.4 °F 59.0 °F 83% 29.95 in 6.2 mi ENE 3.5 mph - N/A   Scattered Clouds
4:00 PM 65 °F 59 °F 76% 29.94 in 12 mi ENE 3.5 mph - -   Partly Cloudy
4:55 PM 64.4 °F 59.0 °F 83% 29.95 in 6.2 mi NW 3.5 mph - N/A   Scattered Clouds
5:55 PM 64.4 °F 59.0 °F 83% 29.98 in - SSW 3.5 mph - N/A   Clear
6:55 PM 64.4 °F 59.0 °F 83% 29.98 in - ENE 3.5 mph - N/A   Clear
7:00 PM 64 °F 59 °F 78% 29.98 in 12 mi ENE 3.5 mph - -   Partly Cloudy
7:55 PM 64.4 °F 59.0 °F 83% 29.98 in - ENE 4.6 mph - N/A   Clear
8:55 PM 64.4 °F 59.0 °F 83% 30.01 in - Calm Calm - N/A   Clear
9:55 PM 62.6 °F 59.0 °F 88% 30.01 in - East 3.5 mph - N/A   Clear
10:00 PM 63 °F 59 °F 83% 30.01 in 12 mi East 3.5 mph - -  
10:55 PM 62.6 °F 59.0 °F 88% 30.01 in - Calm Calm - N/A   Clear